#timestamp,LO_Frequency,Hit,StdDev 
1514462415.4,286047002.6,N
1514462435.3,286046999.7,N
1514462455.1,286047002.2,N
1514462475.9,286047004.3,N
1514462495.7,286047000.2,N
1514462515.5,286046997.2,N
1514462535.4,286046998.8,N
1514462555.2,286046998.7,N
1514462575.0,286046997.7,N
1514462575.9,286046997.7,N
1514462595.8,286046999.2,N
1514462615.6,286047000.8,N
1514462635.5,286047002.3,N
1514462655.3,286047002.6,N
1514462675.1,286046999.9,N
1514462695.9,286047001.5,N
1514462715.7,286047001.8,N
1514462735.6,286047000.2,N
1514462755.4,286047000.1,N
1514462775.2,286047001.4,N
1514462795.1,286047003.8,N
1514462796.0,286047003.8,N
1514462815.8,286047001.4,N
1514462835.6,286047002.4,N
1514462855.5,286046999.1,N
1514462875.3,286046999.3,N
1514462895.2,286047000.8,N
1514462915.9,286046994.9,N
1514462935.7,286046995.0,N
1514462955.6,286046993.7,N
1514462975.4,286046999.5,N
1514462995.3,286046999.4,N
1514463015.1,286046998.1,N
1514463016.0,286046998.1,N
1514463035.8,286046998.2,N
1514463055.7,286046998.3,N
1514463075.5,286046998.8,N
1514463095.4,286046998.7,N
1514463115.2,286047000.8,N
1514463135.0,286046998.7,N
1514463135.9,286046998.7,N
1514463155.8,286047000.6,N
1514463175.6,286046998.9,N
1514463195.4,286046999.3,N
1514463215.3,286047001.0,N
1514463235.1,286047002.0,N
1514463255.9,286046998.4,N
1514463275.7,286047000.8,N
1514463295.5,286046998.6,N
1514463315.4,286046996.7,N
1514463335.2,286046997.8,N
1514463355.1,286046998.4,N
1514463356.0,286046998.4,N
1514463375.8,286047000.6,N
1514463395.6,286047001.2,N
1514463415.5,286047002.6,N
1514463435.3,286047002.6,N
1514463455.1,286047002.7,N
1514463475.9,286047003.0,N
1514463495.7,286047001.7,N
1514463515.6,286047004.3,N
1514463535.4,286047004.0,N
1514463555.2,286047003.7,N
1514463575.1,286047005.7,N
1514463576.0,286047005.7,N
1514463595.8,286047007.4,Y
1514463615.7,286047004.6,P
1514463635.5,286047001.7,N
1514463655.3,286047000.1,N
1514463675.2,286047002.2,N
1514463695.0,286047002.4,N
1514463695.9,286047002.4,N
1514463715.8,286046999.8,N
1514463735.6,286047000.7,N
1514463755.4,286046998.2,N
1514463775.3,286046996.7,N
1514463795.1,286046997.2,N
1514463815.8,286046994.9,N
1514463835.7,286046995.4,N
1514463855.5,286046997.7,N
1514463875.4,286046996.4,N
1514463895.2,286046991.7,N
1514463915.0,286046998.0,N
1514463915.9,286046998.0,N
1514463935.8,286046999.6,N
1514463955.6,286047011.9,Y
1514463975.5,286046996.9,P
1514463995.3,286046995.7,P
1514464015.1,286046993.3,P
1514464035.9,286046997.7,N
1514464055.7,286046997.4,N
1514464075.6,286046997.6,N
1514464095.4,286046999.1,N
1514464115.2,286046996.9,N
1514464135.1,286047000.4,N
1514464136.0,286047000.4,N
1514464155.8,286047000.3,N
1514464175.6,286047001.0,N
1514464195.5,286047000.6,N
1514464215.3,286047000.7,N
1514464235.2,286046997.3,N
1514464255.9,286046998.8,N
1514464275.7,286047000.4,N
1514464295.6,286047004.1,N
1514464315.4,286047002.9,N
1514464335.4,286047004.0,N
1514464355.3,286047001.6,N
1514464375.1,286047001.4,N
1514464395.8,286047001.4,N
1514464415.7,286046999.7,N
1514464435.5,286046999.7,N
1514464455.4,286047002.4,N
1514464475.2,286047001.4,N
1514464495.0,286047003.2,N
1514464495.9,286047003.2,N
1514464515.8,286047001.5,N
1514464535.6,286046998.2,N
1514464555.5,286046999.2,N
1514464575.3,286046997.1,N
1514464595.1,286046997.8,N
1514464615.9,286046995.2,N
1514464635.7,286046995.8,N
1514464655.6,286046997.0,N
1514464675.4,286046999.4,N
1514464695.2,286046998.0,N
1514464715.1,286046995.3,N
1514464716.0,286046995.3,N
1514464735.8,286046995.9,N
1514464755.6,286046993.5,N
1514464775.5,286046996.0,N
1514464795.3,286046997.0,N
1514464815.2,286046996.9,N
1514464835.9,286047001.0,N
1514464855.7,286046998.8,N
1514464875.6,286046999.0,N
1514464895.4,286046997.1,N
1514464915.3,286046997.3,N
1514464935.1,286046997.3,N
1514464936.0,286046997.3,N
1514464955.8,286046996.9,N
1514464975.7,286046996.5,N
1514464995.5,286046998.2,N
1514465015.4,286047000.5,N
1514465035.2,286046999.7,N
1514465055.0,286047000.8,N
1514465055.9,286047000.8,N
1514465075.8,286047001.3,N
1514465095.6,286047001.5,N
1514465115.4,286047002.1,N
1514465135.3,286046998.3,N
1514465155.1,286046999.2,N
1514465175.9,286046998.9,N
1514465195.7,286046996.7,N
1514465215.5,286046998.7,N
1514465235.4,286046996.5,N
1514465255.2,286046997.5,N
1514465275.1,286046996.6,N
1514465276.0,286046996.6,N
1514465295.8,286046996.5,N
1514465315.6,286046995.4,N
1514465335.5,286046997.5,N
1514465355.3,286046998.0,N
1514465375.1,286046996.1,N
1514465395.9,286046997.1,N
1514465415.7,286047004.9,N
1514465435.6,286047001.8,N
1514465455.4,286047004.0,N
1514465475.2,286047002.2,N
1514465495.1,286047001.0,N
1514465496.0,286047001.0,N
1514465515.8,286046998.9,N
1514465535.7,286046997.1,N
1514465555.5,286046996.1,N
1514465575.3,286046993.8,N
1514465595.2,286046997.6,N
1514465615.0,286046997.8,N
1514465615.9,286046997.8,N
1514465635.8,286046991.7,Y
1514465655.6,286046991.2,P
1514465675.4,286046987.3,P
1514465695.3,286046985.6,P
1514465715.1,286046982.3,Y
1514465735.9,286046992.4,P
1514465755.7,286046993.5,P
1514465775.5,286046995.0,P
1514465795.4,286046997.9,N
1514465815.2,286046997.7,N
1514465835.0,286046998.6,N
1514465835.9,286046998.6,N
1514465855.8,286046998.6,N
1514465875.6,286047000.7,N
1514465895.5,286046998.1,N
1514465915.3,286047001.2,N
1514465935.1,286047000.0,N
1514465955.9,286047000.9,N
1514465975.7,286046999.7,N
1514465995.6,286047000.1,N
